Location: Zagreb
(45.8000°N, 16.0000°E)
Time: 20:30:24
(UTC+02:00)

SR - Pass Details

Date: 13 August 2020
Orbit: 583 x 873 km, 66.7° (Epoch: 28 September)

Event Time Altitude Azimuth Distance (km) Brightness Sun altitude
Rises 21:33:52 0° 204° (SSW) 2,976 ? -13.9°
Reaches altitude 10° 21:36:13 10° 201° (SSW) 2,027 ? -14.3°
Maximum altitude 21:40:43 66° 120° (ESE) 668 ? -14.9°
Drops below altitude 10° 21:45:00 10° 38° (NE) 1,931 ? -15.4°
Sets 21:47:12 0° 36° (NE) 2,822 ? -15.7°
